Weather History for San Antonio Stinson, TX

Change the Weather History Date:

Sunday, July 6, 2014

  Actual Average Record
Temperature  
Mean Temperature 82 °F -  
Max Temperature 93 °F 91 °F 104 °F (1998)
Min Temperature 72 °F 71 °F 69 °F (2008)
Cooling Degree Days 18    
Growing Degree Days 32 (Base 50)    
Moisture  
Dew Point 68 °F    
Average Humidity 67    
Maximum Humidity 97    
Minimum Humidity 37    
Precipitation  
Precipitation 0.00 in - - ()
Sea Level Pressure  
Sea Level Pressure 29.98 in    
Wind  
Wind Speed 7 mph (SE)    
Max Wind Speed 16 mph    
Max Gust Speed 23 mph    
Visibility 10 miles    
Events      
Averages and records for this station are not official NWS values.
T = Trace of Precipitation, MM = Missing Value Source: NWS Daily Summary

Daily Weather History Graph

Daily Weather History Graph

Search for Another Location

Airport:

Trip Planner

Search our weather history database for the weather conditions in past years. The results will help you decide how hot, cold, wet, or windy it might be!

Date:

Astronomy

Jul. 06, 2014 Rise Set
Actual Time 6:40 AM CDT 8:37 PM CDT
Civil Twilight 6:13 AM CDT 9:04 PM CDT
Nautical Twilight 5:40 AM CDT 9:36 PM CDT
Astronomical Twilight 5:05 AM CDT 10:11 PM CDT
Moon 2:54 PM CDT (7/6) 1:41 AM CDT (7/6)
Length of Visible Light 14h 51m
Length of Day
13h 57m
Waxing Gibbous, 62% of the Moon is Illuminated
Jul 6
Waxing Gibbous
Jul 12
Full
Jul 18
Last Quarter
Jul 26
New
Aug 3
First Quarter

Hourly Weather History & Observations

Time (CDT) Temp. Heat Index Dew Point Humidity Pressure Visibility Wind Dir Wind Speed Gust Speed Precip Events Conditions
12:53 AM 73.9 °F - 71.1 °F 91% 30.04 in 10.0 mi East 3.5 mph - N/A   Clear
1:53 AM 73.0 °F - 71.1 °F 93% 30.02 in 10.0 mi ESE 4.6 mph - N/A   Clear
2:53 AM 73.0 °F - 71.1 °F 93% 30.01 in 10.0 mi ESE 4.6 mph - N/A   Clear
3:53 AM 73.0 °F - 71.1 °F 93% 30.01 in 10.0 mi East 3.5 mph - N/A   Clear
4:53 AM 73.0 °F - 71.1 °F 93% 30.01 in 10.0 mi East 3.5 mph - N/A   Clear
5:53 AM 72.0 °F - 71.1 °F 97% 30.01 in 10.0 mi East 3.5 mph - N/A   Clear
6:53 AM 72.0 °F - 71.1 °F 97% 30.02 in 10.0 mi East 4.6 mph - N/A   Clear
7:53 AM 73.0 °F - 72.0 °F 96% 30.03 in 10.0 mi ESE 5.8 mph - N/A   Clear
8:53 AM 77.0 °F - 71.1 °F 82% 30.05 in 10.0 mi SSE 8.1 mph - N/A   Clear
9:53 AM 80.1 °F 83.6 °F 71.1 °F 74% 30.04 in 10.0 mi SSE 10.4 mph - N/A   Partly Cloudy
10:53 AM 84.0 °F 89.0 °F 71.1 °F 65% 30.04 in 10.0 mi SSE 9.2 mph - N/A   Clear
11:53 AM 84.9 °F 88.8 °F 69.1 °F 59% 30.02 in 10.0 mi SSW 6.9 mph - N/A   Partly Cloudy
12:53 PM 88.0 °F 91.4 °F 68.0 °F 51% 30.01 in 10.0 mi SW 5.8 mph - N/A   Partly Cloudy
1:53 PM 89.1 °F 91.3 °F 66.0 °F 46% 29.99 in 10.0 mi SSE 15.0 mph - N/A   Scattered Clouds
2:53 PM 91.9 °F 95.4 °F 66.9 °F 44% 29.95 in 10.0 mi South 6.9 mph 19.6 mph N/A   Partly Cloudy
3:53 PM 93.0 °F 95.9 °F 66.0 °F 41% 29.94 in 10.0 mi SSE 10.4 mph - N/A   Clear
4:53 PM 93.0 °F 94.6 °F 64.0 °F 38% 29.92 in 10.0 mi ESE 8.1 mph - N/A   Clear
5:53 PM 93.0 °F 94.2 °F 63.0 °F 37% 29.90 in 10.0 mi SSE 11.5 mph - N/A   Clear
6:53 PM 91.9 °F 92.9 °F 63.0 °F 38% 29.89 in 10.0 mi SSE 9.2 mph - N/A   Clear
7:53 PM 89.1 °F 91.3 °F 66.0 °F 46% 29.90 in 10.0 mi SE 13.8 mph - N/A   Clear
8:53 PM 86.0 °F 88.2 °F 66.0 °F 51% 29.91 in 10.0 mi ESE 16.1 mph - N/A   Clear
9:53 PM 82.9 °F 85.4 °F 66.9 °F 58% 29.93 in 10.0 mi SE 15.0 mph 23.0 mph N/A   Clear
10:53 PM 81.0 °F 83.0 °F 66.0 °F 60% 29.94 in 10.0 mi SE 11.5 mph - N/A   Clear
11:53 PM 79.0 °F - 66.9 °F 66% 29.96 in 10.0 mi SE 8.1 mph - N/A   Clear